Overview Statistics Trail Chart Weather Telemetry Raw packets
 

This is the latest recevied weather packets stored in our database for station/object 9W2NNS-12. If no packets are shown the sender has not sent any weather packets the latest 10 day(s).

<< 5 6 7 8 9 10 11 >>
Time Temp. Humidity Pressure Rain* Wind** Luminosity Snow
1788484630 33.33° C 47% 1014.7 hPa - - - -
1788483423 32.78° C 50% 1015 hPa - - - -
1788482216 32.22° C 50% 1014.7 hPa - - - -
1788481614 32.22° C 51% 1013.9 hPa - - - -
1788480404 31.67° C 53% 1015 hPa - - - -
1788479800 31.11° C 54% 1013.2 hPa - - - -
1788478593 30° C 54% 1014.3 hPa - - - -
1788477990 30° C 55% 1014.2 hPa - - - -
1788477387 30° C 54% 1012.6 hPa - - - -
1788475577 30.56° C 52% 1015.5 hPa - - - -
1788474367 30.56° C 54% 1014.7 hPa - - - -
1788473763 30.56° C 53% 1013.5 hPa - - - -
1788473159 31.11° C 53% 1013.1 hPa - - - -
1788472556 31.11° C 56% 1012 hPa - - - -
1788470746 31.11° C 56% 1013.1 hPa - - - -
1788468932 31.67° C 54% 1012 hPa - - - -
1788468329 31.67° C 54% 1011.3 hPa - - - -
1788467725 31.67° C 54% 1012.1 hPa - - - -
1788467121 31.67° C 53% 1012.4 hPa - - - -
1788466518 32.22° C 53% 1013.6 hPa - - - -
1788465036 32.22° C 54% 1011 hPa - - - -
1788464432 32.22° C 53% 1014.1 hPa - - - -
1788463830 32.22° C 53% 1015.3 hPa - - - -
1788463195 32.22° C 53% 1013 hPa - - - -
1788462591 32.22° C 54% 1013.9 hPa - - - -

* Rain since midnight (hover to see other rain measurements)
** Current wind speed in m/s (hover to see current wind gust speed)